Time,TemperatureF,DewpointF,PressureIn,WindDirection,WindDirectionDegrees,WindSpeedMPH,WindSpeedGustMPH,Humidity,HourlyPrecipIn,Conditions,Clouds,dailyrainin,SolarRadiationWatts/m^2,SoftwareType,DateUTC
2013-08-25 00:43:00,64.0,46.0,-100.00,SSW,213,16.0,31.0,52,0.00,,,0.00,0.000000,,2013-08-25 06:43:00,
2013-08-25 00:52:00,64.0,46.0,-100.00,SSW,213,16.0,31.0,52,0.00,,,0.00,0.000000,,2013-08-25 06:52:00,
2013-08-25 01:01:00,64.0,46.0,-100.00,SSW,213,16.0,31.0,52,0.00,,,0.00,0.000000,,2013-08-25 07:01:00,
2013-08-25 01:42:00,64.0,45.0,-100.00,SSW,209,12.0,24.0,50,0.00,,,0.00,0.000000,,2013-08-25 07:42:00,
2013-08-25 01:52:00,64.0,45.0,-100.00,SSW,209,12.0,24.0,50,0.00,,,0.00,0.000000,,2013-08-25 07:52:00,
2013-08-25 02:02:00,64.0,45.0,-100.00,SSW,209,12.0,24.0,50,0.00,,,0.00,0.000000,,2013-08-25 08:02:00,
2013-08-25 02:21:00,61.0,43.0,-100.00,SSE,167,10.0,22.0,52,0.00,,,0.00,0.000000,,2013-08-25 08:21:00,
2013-08-25 02:32:00,61.0,43.0,-100.00,SSE,167,10.0,22.0,52,0.00,,,0.00,0.000000,,2013-08-25 08:32:00,
2013-08-25 02:42:00,61.0,43.0,-100.00,SSE,167,10.0,22.0,52,0.00,,,0.00,0.000000,,2013-08-25 08:42:00,
2013-08-25 02:52:00,61.0,43.0,-100.00,SSE,167,10.0,22.0,52,0.00,,,0.00,0.000000,,2013-08-25 08:52:00,
2013-08-25 03:01:00,61.0,43.0,-100.00,SSE,167,10.0,22.0,52,0.00,,,0.00,0.000000,,2013-08-25 09:01:00,
2013-08-25 03:03:00,62.0,45.0,-100.00,South,184,8.0,15.0,53,0.00,,,0.00,0.000000,,2013-08-25 09:03:00,
2013-08-25 03:44:00,62.0,45.0,-100.00,South,184,8.0,15.0,53,0.00,,,0.00,0.000000,,2013-08-25 09:44:00,
2013-08-25 03:55:00,62.0,45.0,-100.00,South,184,8.0,15.0,53,0.00,,,0.00,0.000000,,2013-08-25 09:55:00,
2013-08-25 04:42:00,60.0,43.0,-100.00,SW,221,6.0,16.0,53,0.00,,,0.00,0.000000,,2013-08-25 10:42:00,
2013-08-25 04:53:00,60.0,43.0,-100.00,SW,221,6.0,16.0,53,0.00,,,0.00,0.000000,,2013-08-25 10:53:00,
2013-08-25 05:02:00,60.0,43.0,-100.00,SW,221,6.0,16.0,53,0.00,,,0.00,0.000000,,2013-08-25 11:02:00,
2013-08-25 05:42:00,57.0,41.0,-100.00,SW,226,11.0,19.0,56,0.00,,,0.00,0.000000,,2013-08-25 11:42:00,
2013-08-25 05:52:00,57.0,41.0,-100.00,SW,226,11.0,19.0,56,0.00,,,0.00,0.000000,,2013-08-25 11:52:00,
2013-08-25 06:01:00,57.0,41.0,-100.00,SW,226,11.0,19.0,56,0.00,,,0.00,0.000000,,2013-08-25 12:01:00,
2013-08-25 06:43:00,58.0,42.0,-100.00,SSW,201,5.0,14.0,55,0.00,,,0.00,0.000000,,2013-08-25 12:43:00,
2013-08-25 06:52:00,58.0,42.0,-100.00,SSW,201,5.0,14.0,55,0.00,,,0.00,0.000000,,2013-08-25 12:52:00,
2013-08-25 07:02:00,58.0,42.0,-100.00,SSW,201,5.0,14.0,55,0.00,,,0.00,0.000000,,2013-08-25 13:02:00,
2013-08-25 07:42:00,61.0,42.0,-100.00,SSW,211,4.0,13.0,50,0.00,,,0.00,2.000000,,2013-08-25 13:42:00,
2013-08-25 10:03:00,72.0,44.0,-100.00,SSW,207,13.0,22.0,37,-99.99,,,0.00,466.000000,,2013-08-25 16:03:00,
2013-08-25 10:44:00,72.0,44.0,-100.00,SSW,207,13.0,22.0,37,-99.99,,,0.00,466.000000,,2013-08-25 16:44:00,
2013-08-25 10:54:00,72.0,44.0,-100.00,SSW,207,13.0,22.0,37,-99.99,,,0.00,466.000000,,2013-08-25 16:54:00,
2013-08-25 12:43:00,81.0,44.0,-100.00,SSW,193,14.0,22.0,27,0.00,,,0.00,700.000000,,2013-08-25 18:43:00,
2013-08-25 12:52:00,81.0,44.0,-100.00,SSW,193,14.0,22.0,27,0.00,,,0.00,700.000000,,2013-08-25 18:52:00,
2013-08-25 13:02:00,81.0,44.0,-100.00,SSW,193,14.0,22.0,27,0.00,,,0.00,700.000000,,2013-08-25 19:02:00,
2013-08-25 13:42:00,84.0,44.0,-100.00,SSW,194,13.0,24.0,25,0.00,,,0.00,949.000000,,2013-08-25 19:42:00,
2013-08-25 13:53:00,84.0,44.0,-100.00,SSW,194,13.0,24.0,25,0.00,,,0.00,949.000000,,2013-08-25 19:53:00,
2013-08-25 14:02:00,84.0,44.0,-100.00,SSW,194,13.0,24.0,25,0.00,,,0.00,949.000000,,2013-08-25 20:02:00,
2013-08-25 14:43:00,87.0,45.0,-100.00,SSE,154,13.0,27.0,23,0.00,,,0.00,985.000000,,2013-08-25 20:43:00,
2013-08-25 14:53:00,87.0,45.0,-100.00,SSE,154,13.0,27.0,23,0.00,,,0.00,985.000000,,2013-08-25 20:53:00,
2013-08-25 15:01:00,87.0,45.0,-100.00,SSE,154,13.0,27.0,23,0.00,,,0.00,985.000000,,2013-08-25 21:01:00,
2013-08-25 15:03:00,91.0,46.0,-100.00,SSW,198,8.0,23.0,21,0.00,,,0.00,963.000000,,2013-08-25 21:03:00,
2013-08-25 15:43:00,91.0,46.0,-100.00,SSW,198,8.0,23.0,21,0.00,,,0.00,963.000000,,2013-08-25 21:43:00,
2013-08-25 15:54:00,91.0,46.0,-100.00,SSW,198,8.0,23.0,21,0.00,,,0.00,963.000000,,2013-08-25 21:54:00,
2013-08-25 16:43:00,88.0,43.0,-100.00,SSE,157,14.0,19.0,21,0.00,,,0.00,882.000000,,2013-08-25 22:43:00,
2013-08-25 16:53:00,88.0,43.0,-100.00,SSE,157,14.0,19.0,21,0.00,,,0.00,882.000000,,2013-08-25 22:53:00,
2013-08-25 17:02:00,88.0,43.0,-100.00,SSE,157,14.0,19.0,21,0.00,,,0.00,882.000000,,2013-08-25 23:02:00,
2013-08-25 17:43:00,92.0,44.0,-100.00,SSE,155,7.0,23.0,19,0.00,,,0.00,747.000000,,2013-08-25 23:43:00,
2013-08-25 17:53:00,92.0,44.0,-100.00,SSE,155,7.0,23.0,19,0.00,,,0.00,747.000000,,2013-08-25 23:53:00,
2013-08-25 18:02:00,92.0,44.0,-100.00,SSE,155,7.0,23.0,19,0.00,,,0.00,747.000000,,2013-08-26 00:02:00,
2013-08-25 21:03:00,65.0,48.0,-100.00,SW,226,9.0,9.0,54,0.00,,,0.16,2.000000,,2013-08-26 03:03:00,
2013-08-25 21:44:00,65.0,48.0,-100.00,SW,226,9.0,9.0,54,0.00,,,0.16,2.000000,,2013-08-26 03:44:00,
2013-08-25 21:56:00,65.0,48.0,-100.00,SW,226,9.0,9.0,54,0.00,,,0.16,2.000000,,2013-08-26 03:56:00,
2013-08-25 22:03:00,65.0,48.0,-100.00,WSW,250,4.0,11.0,54,0.00,,,0.16,0.000000,,2013-08-26 04:03:00,
2013-08-25 22:44:00,65.0,48.0,-100.00,WSW,250,4.0,11.0,54,0.00,,,0.16,0.000000,,2013-08-26 04:44:00,
2013-08-25 22:53:00,65.0,48.0,-100.00,WSW,250,4.0,11.0,54,0.00,,,0.16,0.000000,,2013-08-26 04:53:00,
2013-08-25 23:44:00,68.0,45.0,-100.00,South,180,7.0,11.0,43,0.00,,,0.16,0.000000,,2013-08-26 05:44:00,
2013-08-25 23:52:00,68.0,45.0,-100.00,South,180,7.0,11.0,43,0.00,,,0.16,0.000000,,2013-08-26 05:52:00,